• En España
  • Lista de países
  • Para 7 días
  • Temperatura del agua
  • Mapa Satelital
  • El tiempo en el mapa
  • Informadores
  • user-avatar
    Iniciar sesión

    Tiempo cada hora Constantine

    Hoy, 23 Septiembre, Sábado

    Tiempo Temperatura Precipitaciones Viento Presión Humedad
    00:00 +24°C° 0 mm 1 mps 712 mmHg 60%
    01:00 +24°C° 0,2 mm 1 mps 712 mmHg 58%
    02:00 +24°C° 0,2 mm 1 mps 712 mmHg 56%
    03:00 +24°C° 0,2 mm 2 mps 712 mmHg 54%
    04:00 +24°C° 0,1 mm 2 mps 712 mmHg 53%
    05:00 +24°C° 0,1 mm 3 mps 712 mmHg 53%
    06:00 +22°C° 0,1 mm 3 mps 712 mmHg 52%
    07:00 +24°C° 0,1 mm 3 mps 713 mmHg 50%
    08:00 +24°C° 0,1 mm 2 mps 713 mmHg 48%
    09:00 +24°C° 0,1 mm 2 mps 714 mmHg 46%
    10:00 +26°C° 0 mm 2 mps 713 mmHg 41%
    11:00 +27°C° 0 mm 2 mps 713 mmHg 36%
    12:00 +29°C° 0 mm 1 mps 713 mmHg 31%
    13:00 +29°C° 0 mm 2 mps 713 mmHg 29%
    14:00 +30°C° 0 mm 2 mps 713 mmHg 26%
    15:00 +31°C° 0 mm 2 mps 713 mmHg 24%
    16:00 +30°C° 0,3 mm 2 mps 712 mmHg 29%
    17:00 +28°C° 0,3 mm 2 mps 712 mmHg 35%
    18:00 +27°C° 0,3 mm 2 mps 712 mmHg 40%
    19:00 +26°C° 0,4 mm 2 mps 712 mmHg 42%
    20:00 +26°C° 0,4 mm 2 mps 712 mmHg 44%
    21:00 +25°C° 0,4 mm 2 mps 712 mmHg 46%
    22:00 +25°C° 0 mm 1 mps 712 mmHg 46%
    23:00 +25°C° 0 mm 1 mps 712 mmHg 46%

    Mañana, 24 Septiembre, Domingo

    Tiempo Temperatura Precipitaciones Viento Presión Humedad
    00:00 +24°C° 0 mm 1 mps 712 mmHg 46%
    01:00 +24°C° 0,2 mm 2 mps 712 mmHg 48%
    02:00 +24°C° 0,2 mm 2 mps 712 mmHg 49%
    03:00 +23°C° 0,2 mm 2 mps 711 mmHg 51%
    04:00 +23°C° 0,2 mm 1 mps 712 mmHg 54%
    05:00 +22°C° 0,2 mm 1 mps 712 mmHg 57%
    06:00 +22°C° 0,2 mm 1 mps 712 mmHg 59%
    07:00 +23°C° 0,1 mm 1 mps 712 mmHg 56%
    08:00 +25°C° 0,1 mm 2 mps 713 mmHg 53%
    09:00 +26°C° 0,1 mm 2 mps 713 mmHg 50%
    10:00 +26°C° 0 mm 3 mps 713 mmHg 49%
    11:00 +27°C° 0 mm 3 mps 713 mmHg 48%
    12:00 +28°C° 0 mm 4 mps 713 mmHg 47%
    13:00 +28°C° 0 mm 4 mps 713 mmHg 48%
    14:00 +27°C° 0 mm 4 mps 713 mmHg 49%
    15:00 +27°C° 0 mm 4 mps 713 mmHg 49%
    16:00 +26°C° 0 mm 3 mps 713 mmHg 54%
    17:00 +25°C° 0 mm 3 mps 713 mmHg 59%
    18:00 +24°C° 0 mm 3 mps 713 mmHg 64%
    19:00 +23°C° 0 mm 2 mps 713 mmHg 67%
    20:00 +21°C° 0 mm 2 mps 713 mmHg 71%
    21:00 +22°C° 0 mm 1 mps 713 mmHg 74%
    22:00 +21°C° 0 mm 1 mps 713 mmHg 76%
    23:00 +21°C° 0 mm 1 mps 713 mmHg 77%

    Pasado mañana, 25 Septiembre, Lunes

    Tiempo Temperatura Precipitaciones Viento Presión Humedad
    00:00 +19°C° 0 mm 0 mps 713 mmHg 78%
    01:00 +19°C° 0 mm 0 mps 712 mmHg 79%
    02:00 +18°C° 0 mm 0 mps 712 mmHg 80%
    03:00 +18°C° 0 mm 0 mps 712 mmHg 80%
    04:00 +18°C° 0 mm 0 mps 712 mmHg 79%
    05:00 +18°C° 0 mm 0 mps 712 mmHg 79%
    06:00 +18°C° 0 mm 0 mps 712 mmHg 78%
    07:00 +22°C° 0 mm 1 mps 712 mmHg 70%
    08:00 +23°C° 0 mm 1 mps 712 mmHg 62%
    09:00 +25°C° 0 mm 1 mps 713 mmHg 54%
    10:00 +26°C° 0 mm 1 mps 713 mmHg 47%
    11:00 +27°C° 0 mm 1 mps 713 mmHg 41%
    12:00 +28°C° 0 mm 2 mps 713 mmHg 34%
    13:00 +28°C° 0 mm 2 mps 712 mmHg 33%
    14:00 +29°C° 0 mm 2 mps 712 mmHg 32%
    15:00 +29°C° 0 mm 3 mps 712 mmHg 31%
    16:00 +27°C° 0 mm 3 mps 712 mmHg 35%
    17:00 +26°C° 0 mm 3 mps 712 mmHg 39%
    18:00 +25°C° 0 mm 3 mps 712 mmHg 43%
    19:00 +24°C° 0 mm 2 mps 712 mmHg 46%
    20:00 +23°C° 0 mm 2 mps 712 mmHg 49%
    21:00 +23°C° 0 mm 1 mps 712 mmHg 52%
    22:00 +22°C° 0 mm 1 mps 712 mmHg 52%
    23:00 +22°C° 0 mm 1 mps 712 mmHg 53%

    26 Septiembre, Martes

    Tiempo Temperatura Precipitaciones Viento Presión Humedad
    00:00 +22°C° 0 mm 1 mps 711 mmHg 54%
    01:00 +21°C° 0 mm 1 mps 711 mmHg 54%
    02:00 +19°C° 0 mm 0 mps 711 mmHg 54%
    03:00 +19°C° 0 mm 0 mps 710 mmHg 54%
    04:00 +19°C° 0 mm 0 mps 710 mmHg 54%
    05:00 +19°C° 0 mm 0 mps 710 mmHg 54%
    06:00 +21°C° 0 mm 1 mps 711 mmHg 54%
    07:00 +20°C° 0 mm 0 mps 711 mmHg 48%
    08:00 +22°C° 0 mm 0 mps 711 mmHg 42%
    09:00 +24°C° 0 mm 0 mps 712 mmHg 36%
    10:00 +27°C° 0 mm 1 mps 712 mmHg 32%
    11:00 +28°C° 0 mm 1 mps 712 mmHg 29%
    12:00 +29°C° 0 mm 2 mps 711 mmHg 25%
    13:00 +30°C° 0 mm 2 mps 711 mmHg 25%
    14:00 +30°C° 0 mm 3 mps 711 mmHg 25%
    15:00 +30°C° 0 mm 3 mps 711 mmHg 25%
    16:00 +28°C° 0 mm 3 mps 711 mmHg 30%
    17:00 +27°C° 0 mm 3 mps 711 mmHg 35%
    18:00 +25°C° 0 mm 3 mps 711 mmHg 40%
    19:00 +25°C° 0 mm 2 mps 711 mmHg 43%
    20:00 +24°C° 0 mm 2 mps 711 mmHg 47%
    21:00 +23°C° 0 mm 1 mps 711 mmHg 50%
    22:00 +23°C° 0 mm 1 mps 711 mmHg 52%
    23:00 +22°C° 0 mm 1 mps 711 mmHg 53%

    27 Septiembre, Miércoles

    Tiempo Temperatura Precipitaciones Viento Presión Humedad
    00:00 +20°C° 0 mm 0 mps 711 mmHg 54%
    01:00 +19°C° 0 mm 0 mps 711 mmHg 54%
    02:00 +19°C° 0 mm 0 mps 711 mmHg 54%
    03:00 +19°C° 0 mm 0 mps 711 mmHg 54%
    04:00 +19°C° 0 mm 0 mps 711 mmHg 54%
    05:00 +19°C° 0 mm 0 mps 711 mmHg 54%
    06:00 +19°C° 0 mm 0 mps 711 mmHg 54%
    07:00 +20°C° 0 mm 0 mps 712 mmHg 49%
    08:00 +24°C° 0 mm 1 mps 712 mmHg 44%
    09:00 +25°C° 0 mm 1 mps 713 mmHg 39%
    10:00 +26°C° 0 mm 2 mps 713 mmHg 36%
    11:00 +27°C° 0 mm 2 mps 713 mmHg 34%
    12:00 +28°C° 0 mm 3 mps 713 mmHg 31%
    13:00 +28°C° 0 mm 3 mps 713 mmHg 33%
    14:00 +28°C° 0 mm 4 mps 713 mmHg 35%
    15:00 +28°C° 0 mm 4 mps 713 mmHg 37%
    16:00 +26°C° 0 mm 4 mps 713 mmHg 46%
    17:00 +23°C° 0 mm 4 mps 713 mmHg 54%
    18:00 +22°C° 0 mm 4 mps 713 mmHg 62%
    19:00 +21°C° 0 mm 3 mps 713 mmHg 67%
    20:00 +20°C° 0 mm 2 mps 713 mmHg 72%
    21:00 +19°C° 0 mm 2 mps 714 mmHg 76%
    22:00 +20°C° 0 mm 1 mps 714 mmHg 79%
    23:00 +20°C° 0 mm 1 mps 714 mmHg 81%

    28 Septiembre, Jueves

    Tiempo Temperatura Precipitaciones Viento Presión Humedad
    00:00 +19°C° 0 mm 1 mps 714 mmHg 83%
    01:00 +19°C° 0 mm 1 mps 713 mmHg 85%
    02:00 +18°C° 0 mm 1 mps 713 mmHg 87%
    03:00 +18°C° 0 mm 1 mps 713 mmHg 88%
    04:00 +18°C° 0 mm 1 mps 713 mmHg 89%
    05:00 +18°C° 0 mm 1 mps 714 mmHg 89%
    06:00 +18°C° 0 mm 1 mps 714 mmHg 89%
    07:00 +19°C° 0 mm 1 mps 714 mmHg 79%
    08:00 +20°C° 0 mm 1 mps 715 mmHg 69%
    09:00 +21°C° 0 mm 2 mps 715 mmHg 58%
    10:00 +23°C° 0 mm 2 mps 715 mmHg 53%
    11:00 +24°C° 0 mm 2 mps 715 mmHg 47%
    12:00 +25°C° 0 mm 3 mps 715 mmHg 42%
    13:00 +25°C° 0 mm 3 mps 715 mmHg 43%
    14:00 +25°C° 0 mm 3 mps 715 mmHg 44%
    15:00 +25°C° 0 mm 4 mps 715 mmHg 44%
    16:00 +24°C° 0 mm 3 mps 715 mmHg 52%
    17:00 +22°C° 0 mm 3 mps 715 mmHg 59%
    18:00 +20°C° 0 mm 3 mps 715 mmHg 66%
    19:00 +20°C° 0 mm 2 mps 715 mmHg 69%
    20:00 +19°C° 0 mm 2 mps 715 mmHg 73%
    21:00 +19°C° 0 mm 1 mps 715 mmHg 77%
    22:00 +19°C° 0 mm 1 mps 715 mmHg 78%
    23:00 +19°C° 0 mm 1 mps 715 mmHg 80%
    Mostrar más